QPF
0.00 0.00 0.00 0.00 0.00 0.00 0.00 0.00 0.00 0.00 0.00 0.00 0.00 0.00 0.00 0.00 0.00 0.00 0.00 0.00 0.00 0.00 0.00 0.00 0.00 0.00 0.00 0.00 0.00 0.00 0.00 0.00 0.01 0.00 0.01 0.00 0.00 0.00 0.00 0.00 0.00 0.00 0.00
0.00 0.00 0.00 0.00 0.00 0.00 0.00 0.00 0.00 0.00 0.00 0.00 0.00 0.00 0.00 0.00 0.00 0.00 0.00 0.00 0.00 0.00 0.00 0.00 0.00 0.00 0.00 0.00 0.00 0.00 0.00 0.00 0.01 0.00 0.00 0.00 0.00 0.00 0.00 0.00 0.00 0.00 0.01
0.00 0.00 0.00 0.00 0.00 0.00 0.00 0.00 0.00 0.00 0.00 0.00 0.00 0.00 0.00 0.00 0.00 0.00 0.00 0.00 0.00 0.00 0.00 0.00 0.00 0.00 0.00 0.00 0.00 0.00 0.00 0.00 0.00 0.00 0.00 0.00 0.00 0.00 0.00 0.00 0.00 0.01 0.01
0.00 0.00 0.00 0.00 0.00 0.00 0.00 0.00 0.00 0.00 0.00 0.00 0.00 0.00 0.00 0.00 0.00 0.00 0.00 0.00 0.00 0.00 0.00 0.00 0.00 0.00 0.00 0.00 0.00 0.00 0.00 0.00 0.00 0.00 0.00 0.00 0.00 0.00 0.00 0.00 0.00 0.01 0.01
0.00 0.00 0.00 0.00 0.00 0.00 0.00 0.00 0.00 0.00 0.00 0.00 0.00 0.00 0.00 0.00 0.00 0.00 0.00 0.00 0.00 0.00 0.00 0.00 0.00 0.00 0.00 0.00 0.00 0.00 0.00 0.00 0.00 0.00 0.00 0.00 0.00 0.00 0.00 0.00 0.01 0.01 0.01
0.00 0.00 0.00 0.00 0.00 0.00 0.00 0.00 0.00 0.00 0.00 0.00 0.00 0.00 0.00 0.00 0.00 0.00 0.00 0.00 0.00 0.00 0.00 0.00 0.00 0.00 0.00 0.00 0.00 0.00 0.00 0.00 0.00 0.00 0.00 0.00 0.00 0.00 0.00 0.00 0.00 0.00 0.00
0.00 0.00 0.00 0.00 0.00 0.00 0.00 0.00 0.00 0.00 0.00 0.00 0.00 0.00 0.00 0.00 0.00 0.00 0.00 0.00 0.00 0.00 0.00 0.00 0.00 0.00 0.00 0.00 0.00 0.00 0.00 0.00 0.00 0.00 0.00 0.00 0.00 0.00 0.00 0.00 0.00 0.00 0.00
0.00 0.00 0.00 0.00 0.00 0.00 0.00 0.00 0.00 0.00 0.00 0.00 0.00 0.00 0.00 0.00 0.00 0.00 0.00 0.00 0.00 0.00 0.00 0.00 0.00 0.00 0.00 0.00 0.00 0.00 0.00 0.00 0.00 0.00 0.00 0.00 0.00 0.00 0.00 0.00 0.00 0.00 0.00
0.00 0.00 0.00 0.00 0.00 0.00 0.00 0.00 0.00 0.00 0.00 0.00 0.00 0.00 0.00 0.00 0.00 0.00 0.00 0.00 0.00 0.00 0.00 0.00 0.00 0.00 0.00 0.00 0.00 0.00 0.00 0.00 0.00 0.00 0.00 0.00 0.00 0.00 0.00 0.00 0.00 0.00 0.00
0.00 0.00 0.00 0.00 0.00 0.00 0.00 0.00 0.00 0.00 0.00 0.00 0.00 0.00 0.00 0.00 0.00 0.00 0.00 0.00 0.00 0.00 0.00 0.00 0.00 0.00 0.00 0.00 0.00 0.00 0.00 0.00 0.00 0.00 0.00 0.00 0.00 0.00 0.00 0.00 0.00 0.00 0.00
0.00 0.00 0.00 0.00 0.00 0.00 0.00 0.00 0.00 0.00 0.00 0.00 0.00 0.00 0.00 0.00 0.00 0.00 0.00 0.00 0.00 0.00 0.00 0.00 0.00 0.00 0.00 0.00 0.00 0.00 0.00 0.00 0.00 0.00 0.00 0.00 0.00 0.00 0.00 0.00 0.00 0.00 0.00
0.00 0.00 0.00 0.00 0.00 0.00 0.00 0.00 0.00 0.00 0.00 0.00 0.00 0.00 0.00 0.00 0.00 0.00 0.00 0.00 0.00 0.00 0.00 0.00 0.00 0.00 0.00 0.00 0.00 0.00 0.00 0.00 0.00 0.00 0.00 0.00 0.00 0.00 0.00 0.00 0.00 0.00 0.00
0.00 0.00 0.00 0.00 0.00 0.00 0.00 0.00 0.00 0.00 0.00 0.00 0.00 0.00 0.00 0.00 0.00 0.00 0.00 0.00 0.00 0.00 0.00 0.00 0.00 0.00 0.00 0.00 0.00 0.00 0.00 0.00 0.00 0.00 0.00 0.00 0.00 0.00 0.00 0.00 0.00 0.00 0.00
0.00 0.00 0.00 0.00 0.00 0.00 0.00 0.00 0.00 0.00 0.00 0.00 0.00 0.00 0.00 0.00 0.00 0.00 0.00 0.00 0.00 0.00 0.00 0.00 0.00 0.00 0.00 0.00 0.00 0.00 0.00 0.00 0.00 0.00 0.00 0.00 0.00 0.00 0.00 0.00 0.00 0.00 0.00
0.00 0.00 0.00 0.00 0.00 0.00 0.00 0.00 0.00 0.00 0.00 0.00 0.00 0.00 0.00 0.00 0.00 0.00 0.00 0.00 0.00 0.00 0.00 0.00 0.00 0.00 0.00 0.00 0.00 0.00 0.00 0.00 0.00 0.00 0.00 0.00 0.00 0.00 0.00 0.00 0.00 0.00 0.00
0.00 0.00 0.00 0.00 0.00 0.00 0.00 0.00 0.00 0.00 0.00 0.00 0.00 0.00 0.00 0.00 0.00 0.00 0.00 0.00 0.00 0.00 0.00 0.00 0.00 0.00 0.00 0.00 0.00 0.00 0.00 0.00 0.00 0.00 0.00 0.00 0.00 0.00 0.00 0.00 0.00 0.00 0.00
0.00 0.00 0.00 0.00 0.00 0.00 0.00 0.00 0.00 0.00 0.00 0.00 0.00 0.00 0.00 0.00 0.00 0.00 0.00 0.00 0.00 0.00 0.00 0.00 0.00 0.00 0.00 0.00 0.00 0.00 0.00 0.00 0.00 0.00 0.00 0.00 0.00 0.00 0.00 0.00 0.00 0.00 0.00
0.00 0.00 0.00 0.00 0.00 0.00 0.00 0.00 0.00 0.00 0.00 0.00 0.00 0.00 0.00 0.00 0.00 0.00 0.00 0.00 0.00 0.00 0.00 0.00 0.00 0.00 0.00 0.00 0.00 0.00 0.00 0.00 0.00 0.00 0.00 0.00 0.00 0.00 0.00 0.00 0.00 0.00 0.00
0.00 0.00 0.00 0.00 0.00 0.00 0.00 0.00 0.00 0.00 0.00 0.00 0.00 0.00 0.00 0.00 0.00 0.00 0.00 0.00 0.00 0.00 0.00 0.00 0.00 0.00 0.00 0.00 0.00 0.00 0.00 0.00 0.00 0.00 0.00 0.00 0.00 0.00 0.00 0.00 0.00 0.00 0.00
0.00 0.00 0.00 0.00 0.00 0.00 0.00 0.00 0.00 0.00 0.00 0.00 0.00 0.00 0.00 0.00 0.00 0.00 0.00 0.00 0.00 0.00 0.00 0.00 0.00 0.00 0.00 0.00 0.00 0.00 0.00 0.00 0.00 0.00 0.00 0.00 0.00 0.00 0.00 0.00 0.00 0.00 0.00
0.00 0.00 0.00 0.00 0.00 0.00 0.00 0.01 0.01 0.01 0.01 0.00 0.00 0.00 0.00 0.00 0.00 0.00 0.00 0.00 0.00 0.00 0.00 0.00 0.00 0.00 0.00 0.00 0.00 0.00 0.00 0.00 0.00 0.00 0.00 0.00 0.00 0.00 0.00 0.00 0.00 0.00 0.00
0.00 0.00 0.00 0.00 0.00 0.00 0.00 0.01 0.01 0.01 0.01 0.01 0.00 0.00 0.00 0.00 0.00 0.00 0.00 0.00 0.00 0.00 0.00 0.00 0.00 0.00 0.00 0.00 0.00 0.00 0.00 0.00 0.00 0.00 0.00 0.00 0.00 0.00 0.00 0.00 0.00 0.00 0.00
0.00 0.00 0.00 0.00 0.00 0.00 0.00 0.00 0.00 0.00 0.00 0.01 0.01 0.00 0.00 0.00 0.00 0.00 0.00 0.00 0.00 0.00 0.00 0.00 0.00 0.00 0.00 0.00 0.00 0.00 0.00 0.00 0.00 0.00 0.00 0.00 0.00 0.00 0.00 0.00 0.00 0.00 0.00
0.00 0.00 0.00 0.00 0.00 0.00 0.00 0.00 0.00 0.00 0.00 0.00 0.00 0.00 0.00 0.00 0.00 0.00 0.00 0.00 0.00 0.00 0.00 0.00 0.00 0.00 0.00 0.00 0.00 0.00 0.00 0.00 0.00 0.00 0.00 0.00 0.00 0.00 0.00 0.00 0.00 0.00 0.00
0.00 0.00 0.00 0.00 0.00 0.00 0.00 0.00 0.00 0.00 0.00 0.00 0.00 0.00 0.00 0.00 0.00 0.00 0.00 0.00 0.00 0.00 0.00 0.00 0.00 0.00 0.00 0.00 0.00 0.00 0.00 0.00 0.00 0.00 0.00 0.00 0.00 0.00 0.00 0.00 0.00 0.00 0.00
0.00 0.00 0.00 0.00 0.00 0.00 0.00 0.00 0.00 0.00 0.00 0.00 0.00 0.00 0.00 0.00 0.00 0.00 0.00 0.00 0.00 0.00 0.00 0.00 0.00 0.00 0.00 0.00 0.00 0.00 0.00 0.00 0.00 0.00 0.00 0.00 0.00 0.00 0.00 0.00 0.00 0.00 0.00
MSLP
1021.49 1021.93 1021.75 1021.63 1021.68 1021.55 1021.21 1020.91 1020.45 1020.12 1019.82 1019.57 1019.39 1019.25 1019.04 1018.74 1018.47 1018.19 1017.87 1017.61 1017.46 1017.57 1017.69 1017.78 1017.67 1017.51 1017.30 1017.09 1016.58 1016.09 1015.44 1015.26 1014.23 1011.09 1011.23 1010.49 1009.78 1009.05 1007.97 1007.31 1006.76 1006.29 1006.10
1020.99 1021.36 1021.29 1021.06 1021.12 1020.77 1020.36 1019.96 1019.70 1019.46 1019.15 1018.89 1018.64 1018.43 1018.21 1017.88 1017.65 1017.48 1017.22 1017.17 1017.16 1017.08 1017.20 1017.22 1017.02 1016.93 1016.86 1016.53 1015.98 1015.59 1015.52 1015.19 1013.87 1011.86 1011.23 1010.26 1009.24 1008.30 1007.43 1006.83 1005.53 1004.47 1003.89
1020.48 1020.45 1020.53 1020.45 1020.34 1020.00 1019.61 1019.33 1019.13 1018.94 1018.67 1018.48 1018.34 1018.06 1017.77 1017.60 1017.40 1017.20 1017.05 1016.89 1016.61 1016.62 1016.63 1016.61 1016.56 1016.51 1016.16 1015.60 1015.25 1015.22 1015.28 1014.42 1013.44 1012.37 1010.64 1009.75 1008.47 1007.86 1006.68 1005.67 1004.21 1003.28 1002.10
1019.82 1019.68 1019.67 1019.47 1019.42 1019.03 1018.70 1018.50 1018.37 1018.25 1018.14 1018.04 1017.94 1017.71 1017.53 1017.38 1017.15 1016.83 1016.67 1016.42 1016.35 1016.32 1016.29 1016.28 1016.14 1015.79 1015.26 1014.73 1014.82 1014.99 1014.65 1013.68 1012.95 1011.98 1010.76 1009.38 1008.27 1007.28 1006.27 1005.20 1003.31 1002.07 1000.71
1019.04 1018.96 1018.58 1018.41 1018.40 1018.04 1017.82 1017.72 1017.67 1017.59 1017.40 1017.28 1017.12 1016.91 1016.77 1016.60 1016.48 1016.25 1016.18 1016.17 1016.15 1016.03 1015.88 1015.61 1015.29 1014.91 1014.30 1014.23 1014.48 1014.43 1014.07 1013.16 1012.40 1011.42 1010.30 1009.03 1007.85 1006.71 1006.41 1005.09 1003.32 1002.05 999.57
1019.53 1019.43 1019.12 1018.65 1018.26 1017.94 1017.54 1017.27 1017.01 1016.75 1016.52 1016.44 1016.21 1015.94 1015.74 1015.65 1015.78 1015.85 1015.85 1015.79 1015.72 1015.46 1015.02 1014.74 1014.39 1014.01 1013.51 1013.58 1013.73 1013.67 1013.50 1012.73 1011.83 1010.88 1010.00 1008.92 1007.75 1007.35 1006.25 1005.02 1003.29 1001.51 999.61
1019.81 1019.55 1019.20 1018.78 1018.25 1017.81 1017.34 1016.87 1016.44 1016.03 1015.75 1015.42 1015.24 1015.15 1014.88 1014.76 1014.89 1015.06 1015.19 1015.09 1014.95 1014.60 1014.28 1014.07 1013.64 1013.15 1013.12 1013.09 1012.93 1012.63 1012.19 1011.82 1011.23 1010.44 1009.41 1008.75 1007.84 1007.30 1006.45 1005.03 1003.34 1001.53 999.96
1020.42 1020.11 1019.72 1019.20 1018.52 1017.86 1017.23 1016.58 1015.99 1015.58 1015.09 1014.61 1014.04 1013.91 1013.76 1013.78 1013.91 1014.01 1014.28 1014.32 1014.14 1013.86 1013.52 1013.29 1013.05 1012.78 1012.71 1012.82 1012.54 1011.85 1011.31 1010.83 1010.13 1009.53 1008.87 1008.07 1007.53 1006.59 1006.05 1004.85 1003.28 1001.38 999.57
1020.78 1020.34 1019.83 1019.22 1018.48 1017.63 1016.83 1016.19 1015.35 1015.02 1014.44 1014.02 1013.36 1012.68 1012.56 1012.50 1013.00 1013.02 1013.37 1013.47 1013.34 1013.09 1012.80 1012.69 1012.61 1012.37 1012.36 1012.52 1012.20 1011.47 1010.66 1010.03 1009.25 1008.76 1008.19 1007.40 1006.75 1006.25 1005.68 1004.54 1002.88 1001.71 1000.53
1021.11 1020.54 1019.98 1019.33 1018.59 1017.68 1016.87 1016.03 1014.97 1014.17 1013.36 1012.80 1012.15 1011.85 1011.38 1011.47 1012.01 1012.26 1012.59 1012.57 1012.51 1012.31 1012.19 1012.09 1012.07 1012.03 1011.97 1011.91 1011.67 1011.15 1010.36 1009.33 1008.58 1007.79 1007.30 1006.59 1005.98 1005.13 1004.51 1003.74 1002.77 1002.07 1000.84
1021.58 1020.99 1020.33 1019.62 1018.70 1017.85 1016.97 1016.04 1015.09 1013.94 1012.83 1011.93 1011.36 1010.92 1010.61 1010.51 1010.73 1011.27 1011.64 1011.69 1011.56 1011.62 1011.54 1011.45 1011.41 1011.37 1011.33 1011.16 1011.04 1010.64 1009.85 1009.17 1008.43 1007.71 1006.96 1006.42 1005.60 1004.97 1004.28 1003.49 1002.72 1001.89 1001.20
1021.73 1020.89 1020.17 1019.56 1018.79 1017.97 1016.98 1015.83 1014.79 1013.73 1012.44 1011.29 1010.60 1009.93 1009.49 1009.55 1010.09 1010.24 1010.56 1010.86 1010.79 1010.86 1010.86 1010.81 1010.78 1010.69 1010.52 1010.31 1010.26 1009.90 1009.45 1008.85 1008.15 1007.45 1006.73 1006.25 1005.84 1004.83 1004.16 1003.40 1002.51 1001.90 1001.55
1021.72 1020.95 1020.22 1019.55 1018.76 1018.01 1016.91 1015.79 1014.67 1013.58 1012.42 1010.96 1009.89 1009.04 1008.66 1008.58 1009.03 1009.37 1009.93 1010.23 1010.15 1010.22 1010.20 1010.31 1010.29 1010.28 1010.05 1009.76 1009.64 1009.44 1009.15 1008.55 1008.03 1007.30 1006.68 1006.03 1005.82 1005.46 1004.48 1003.54 1002.83 1002.48 1002.12
1021.91 1021.11 1020.26 1019.50 1018.78 1018.04 1017.10 1016.00 1014.77 1013.50 1012.24 1010.91 1009.24 1008.06 1007.80 1007.73 1008.21 1008.66 1009.27 1009.65 1009.57 1009.56 1009.57 1009.70 1009.81 1009.85 1009.76 1009.57 1009.36 1009.18 1008.92 1008.55 1008.16 1007.59 1006.95 1006.03 1005.34 1004.69 1004.22 1003.41 1003.05 1002.81 1002.72
1022.22 1021.36 1020.53 1019.73 1018.96 1018.00 1017.16 1016.29 1015.12 1013.93 1012.70 1011.15 1009.15 1007.68 1007.31 1007.13 1007.55 1008.24 1008.49 1008.94 1008.89 1008.87 1009.08 1009.22 1009.31 1009.30 1009.16 1009.14 1009.01 1008.85 1008.71 1008.44 1007.99 1007.62 1007.18 1006.51 1005.53 1004.55 1003.65 1003.45 1003.00 1003.08 1003.26
1022.47 1021.70 1020.85 1019.96 1019.18 1018.30 1017.15 1015.45 1014.94 1013.93 1012.64 1011.26 1010.06 1008.58 1007.63 1007.28 1007.46 1007.91 1008.25 1008.60 1008.65 1008.64 1008.84 1008.80 1008.70 1008.83 1008.62 1008.66 1008.64 1008.52 1008.40 1008.22 1007.94 1007.49 1006.93 1006.47 1005.84 1005.25 1004.50 1003.69 1003.63 1003.59 1003.44
1022.94 1022.06 1021.09 1020.11 1019.36 1018.43 1017.38 1016.38 1014.55 1013.04 1012.44 1011.43 1010.52 1009.65 1008.55 1007.47 1007.35 1007.54 1007.96 1008.34 1008.24 1008.33 1008.22 1008.47 1008.29 1008.23 1008.16 1008.16 1008.25 1008.19 1008.04 1007.84 1007.65 1007.39 1006.97 1006.40 1005.84 1005.23 1004.64 1004.10 1003.55 1003.16 1003.19
1023.20 1022.34 1021.42 1020.50 1019.61 1018.62 1017.67 1016.50 1015.38 1014.05 1012.43 1011.31 1010.81 1010.37 1009.57 1008.49 1007.38 1007.37 1007.90 1008.13 1008.20 1008.28 1008.27 1008.27 1008.00 1008.10 1008.04 1007.94 1007.86 1007.79 1007.69 1007.51 1007.29 1007.08 1006.89 1006.52 1005.83 1005.28 1004.71 1004.27 1003.87 1003.75 1003.79
1023.13 1022.22 1021.54 1020.60 1019.59 1018.72 1017.48 1016.38 1015.39 1014.42 1013.41 1012.28 1011.20 1010.56 1010.28 1009.89 1009.26 1008.61 1008.29 1008.19 1008.31 1008.38 1008.48 1008.56 1008.25 1008.44 1008.25 1008.20 1008.10 1007.76 1007.53 1007.27 1007.08 1006.82 1006.67 1006.52 1006.07 1005.66 1005.07 1004.60 1004.28 1003.99 1004.00
1022.89 1022.22 1021.58 1020.40 1019.33 1018.37 1017.43 1016.36 1015.34 1014.54 1013.67 1012.82 1011.98 1011.30 1010.93 1010.55 1009.92 1009.58 1009.24 1008.78 1008.62 1008.63 1008.61 1008.61 1008.55 1008.56 1008.47 1008.27 1008.03 1007.88 1007.57 1007.11 1006.68 1006.34 1006.17 1006.06 1006.08 1005.72 1005.10 1004.60 1004.08 1003.79 1003.55
1022.59 1021.80 1021.27 1020.14 1019.37 1018.59 1017.66 1016.66 1015.62 1014.58 1013.71 1012.93 1012.34 1011.85 1011.74 1011.16 1010.50 1010.10 1009.64 1009.27 1009.08 1008.75 1008.74 1008.78 1008.77 1008.68 1008.71 1008.28 1008.23 1007.92 1007.61 1007.24 1006.80 1006.25 1005.83 1005.35 1005.10 1005.08 1004.91 1004.52 1004.22 1003.72 1003.32
1022.56 1021.73 1020.86 1020.17 1019.43 1018.59 1017.97 1017.05 1016.05 1015.21 1014.35 1013.44 1012.42 1011.85 1011.69 1011.13 1010.51 1010.07 1009.70 1009.43 1009.40 1009.29 1009.01 1008.83 1008.68 1008.65 1008.53 1008.27 1008.25 1008.08 1007.79 1007.51 1006.97 1006.31 1005.85 1005.43 1004.98 1004.41 1004.10 1003.85 1003.64 1003.43 1003.39
1022.46 1021.56 1020.72 1020.08 1019.51 1018.82 1018.09 1017.23 1016.26 1015.42 1014.42 1013.57 1012.80 1012.34 1011.74 1011.19 1010.76 1010.27 1009.85 1009.55 1009.35 1009.07 1008.94 1008.81 1008.61 1008.51 1008.38 1008.26 1008.20 1008.11 1007.90 1007.64 1007.36 1006.99 1006.38 1005.67 1005.17 1004.71 1004.09 1003.37 1003.08 1003.02 1003.20
1022.28 1021.50 1020.69 1020.03 1019.39 1018.86 1018.03 1017.41 1016.49 1015.54 1014.64 1013.76 1012.99 1012.55 1011.92 1011.23 1010.64 1010.19 1009.82 1009.49 1009.30 1009.00 1008.81 1008.70 1008.49 1008.27 1008.04 1007.99 1008.01 1007.94 1007.82 1007.83 1007.60 1007.15 1006.76 1005.94 1005.25 1004.86 1004.53 1004.00 1003.13 1002.60 1002.66
1022.28 1021.44 1020.70 1020.02 1019.33 1018.58 1017.90 1017.30 1016.69 1015.82 1015.01 1013.80 1013.14 1012.71 1012.02 1011.38 1010.66 1010.07 1009.57 1009.30 1009.17 1008.95 1008.60 1008.42 1008.24 1008.02 1007.82 1007.79 1007.83 1007.82 1007.71 1007.79 1007.62 1007.30 1006.52 1005.90 1005.12 1004.70 1004.41 1004.12 1003.69 1003.27 1002.95
1022.32 1021.57 1020.84 1020.04 1019.18 1018.50 1017.85 1017.16 1016.60 1015.94 1015.12 1014.46 1013.55 1013.01 1012.19 1011.79 1011.21 1010.20 1009.66 1009.29 1008.93 1008.60 1008.38 1008.10 1007.89 1007.78 1007.62 1007.41 1007.33 1007.44 1007.55 1007.53 1007.19 1006.96 1006.48 1005.69 1004.85 1004.15 1003.85 1003.67 1003.34 1003.07 1002.89
Thickness
5491 5485 5484 5482 5477 5475 5473 5471 5470 5467 5465 5462 5460 5456 5453 5453 5451 5450 5449 5448 5445 5440 5434 5430 5427 5426 5425 5423 5424 5424 5424 5415 5416 5447 5432 5429 5424 5422 5430 5440 5454 5476 5498
5486 5478 5475 5472 5467 5466 5465 5463 5460 5456 5453 5452 5450 5447 5444 5442 5440 5438 5437 5434 5430 5427 5421 5419 5418 5417 5415 5415 5417 5416 5409 5404 5410 5420 5418 5417 5414 5416 5423 5429 5448 5466 5488
5477 5472 5467 5463 5458 5457 5454 5450 5445 5441 5438 5435 5432 5431 5429 5426 5423 5421 5420 5418 5418 5414 5409 5407 5406 5404 5406 5410 5411 5405 5398 5403 5404 5404 5411 5408 5407 5406 5418 5428 5446 5458 5481
5467 5463 5458 5453 5448 5445 5442 5437 5433 5428 5423 5418 5414 5412 5409 5407 5405 5404 5403 5403 5400 5396 5394 5392 5393 5395 5400 5404 5401 5394 5393 5398 5397 5397 5399 5401 5401 5403 5413 5422 5440 5455 5476
5457 5452 5448 5444 5437 5434 5430 5424 5418 5413 5407 5402 5399 5396 5394 5393 5390 5389 5387 5384 5381 5380 5379 5380 5384 5388 5394 5394 5390 5387 5388 5392 5393 5394 5395 5398 5399 5404 5406 5418 5436 5449 5477
5436 5431 5426 5423 5419 5414 5409 5403 5399 5396 5391 5387 5384 5383 5381 5379 5374 5370 5367 5367 5365 5366 5369 5371 5375 5380 5386 5384 5382 5382 5383 5387 5390 5392 5390 5393 5394 5394 5400 5411 5429 5445 5469
5417 5411 5405 5400 5396 5392 5388 5384 5381 5377 5373 5370 5367 5364 5365 5363 5357 5353 5351 5351 5352 5355 5357 5360 5366 5372 5373 5374 5375 5377 5382 5383 5385 5389 5391 5388 5387 5388 5392 5404 5420 5440 5460
5393 5386 5380 5375 5372 5369 5367 5363 5361 5357 5355 5352 5352 5348 5349 5347 5342 5339 5335 5336 5339 5342 5346 5350 5355 5359 5362 5363 5365 5371 5377 5381 5385 5387 5387 5389 5385 5388 5392 5401 5416 5437 5458
5371 5364 5358 5353 5350 5348 5346 5342 5342 5334 5333 5331 5331 5334 5333 5333 5326 5324 5321 5321 5324 5329 5334 5337 5341 5346 5349 5351 5356 5362 5369 5375 5382 5385 5387 5388 5387 5386 5390 5400 5417 5430 5447
5349 5343 5336 5329 5325 5323 5320 5318 5319 5315 5315 5313 5315 5315 5318 5318 5312 5309 5307 5309 5312 5318 5321 5326 5328 5332 5336 5340 5347 5353 5360 5371 5377 5384 5386 5390 5391 5392 5394 5399 5411 5422 5435
5323 5317 5311 5304 5300 5296 5295 5292 5291 5292 5293 5296 5297 5301 5303 5305 5304 5300 5297 5299 5304 5307 5311 5315 5319 5322 5325 5331 5337 5344 5354 5361 5368 5375 5380 5384 5388 5390 5392 5396 5404 5417 5427
5301 5296 5291 5284 5279 5274 5271 5269 5266 5265 5269 5274 5277 5284 5290 5291 5289 5291 5292 5292 5295 5298 5301 5305 5309 5313 5318 5324 5328 5336 5344 5352 5360 5368 5374 5379 5380 5386 5388 5393 5402 5411 5418
5282 5276 5271 5265 5257 5248 5244 5241 5242 5243 5245 5254 5259 5268 5274 5279 5279 5281 5281 5282 5286 5289 5292 5294 5299 5303 5309 5315 5320 5326 5332 5342 5349 5358 5366 5372 5374 5376 5384 5390 5394 5398 5406
5262 5256 5250 5243 5235 5226 5221 5218 5221 5224 5228 5234 5245 5255 5262 5268 5269 5270 5270 5272 5276 5280 5283 5285 5289 5292 5298 5304 5309 5315 5322 5329 5336 5343 5352 5361 5368 5375 5380 5387 5388 5391 5397
5241 5234 5226 5218 5212 5209 5204 5198 5198 5201 5203 5212 5229 5244 5252 5258 5259 5257 5260 5261 5266 5271 5274 5277 5280 5284 5290 5295 5300 5305 5311 5318 5326 5332 5338 5348 5358 5367 5376 5380 5386 5384 5388
5221 5213 5204 5197 5191 5187 5186 5195 5185 5183 5191 5200 5210 5224 5233 5239 5242 5243 5246 5248 5253 5259 5263 5268 5273 5275 5281 5286 5291 5296 5302 5308 5314 5322 5330 5338 5348 5355 5363 5372 5375 5378 5381
5199 5191 5185 5180 5174 5169 5168 5164 5172 5181 5177 5186 5194 5202 5212 5226 5230 5233 5233 5235 5243 5248 5254 5257 5262 5267 5272 5277 5282 5288 5293 5300 5305 5311 5319 5328 5337 5347 5354 5362 5369 5374 5375
5182 5173 5168 5163 5158 5153 5148 5146 5146 5151 5165 5172 5175 5182 5190 5202 5215 5219 5220 5224 5230 5234 5240 5245 5252 5254 5260 5266 5272 5278 5284 5291 5298 5304 5308 5316 5326 5335 5344 5351 5358 5363 5366
5170 5162 5154 5149 5144 5138 5136 5132 5129 5131 5137 5147 5157 5164 5170 5175 5183 5193 5203 5210 5213 5219 5223 5227 5236 5238 5244 5249 5256 5265 5273 5281 5288 5295 5300 5304 5313 5321 5331 5339 5344 5351 5355
5160 5150 5142 5139 5135 5129 5121 5116 5115 5114 5117 5124 5132 5140 5147 5154 5162 5169 5178 5187 5195 5200 5206 5212 5219 5224 5230 5237 5244 5250 5259 5270 5279 5288 5295 5299 5302 5309 5319 5327 5336 5342 5347
5152 5145 5136 5131 5121 5113 5105 5099 5098 5099 5101 5106 5111 5117 5121 5130 5140 5148 5158 5168 5175 5184 5190 5196 5203 5210 5215 5225 5231 5237 5246 5256 5265 5276 5286 5295 5301 5305 5310 5319 5324 5330 5338
5143 5137 5130 5120 5110 5101 5089 5083 5080 5079 5081 5086 5094 5101 5104 5113 5122 5131 5139 5148 5157 5164 5171 5180 5188 5195 5203 5212 5218 5225 5232 5241 5252 5263 5273 5282 5291 5300 5307 5313 5317 5322 5326
5136 5130 5122 5111 5100 5089 5078 5071 5067 5065 5067 5070 5076 5080 5087 5096 5103 5112 5120 5128 5137 5148 5156 5165 5173 5181 5189 5198 5205 5213 5221 5229 5237 5246 5258 5270 5279 5287 5296 5307 5313 5314 5317
5132 5124 5114 5104 5093 5081 5071 5061 5056 5053 5054 5057 5061 5064 5071 5080 5089 5096 5104 5111 5118 5127 5137 5147 5157 5167 5176 5185 5193 5202 5210 5216 5224 5234 5244 5258 5269 5278 5284 5292 5303 5310 5313
5127 5119 5109 5099 5089 5078 5068 5057 5049 5045 5044 5049 5051 5053 5058 5065 5074 5082 5090 5097 5103 5110 5120 5129 5140 5151 5162 5172 5181 5189 5199 5206 5214 5223 5236 5249 5262 5270 5277 5282 5288 5295 5302
5122 5114 5105 5097 5088 5077 5066 5057 5048 5042 5040 5038 5042 5043 5048 5051 5057 5067 5074 5080 5087 5096 5104 5114 5123 5134 5146 5158 5169 5178 5187 5196 5206 5216 5227 5241 5255 5266 5274 5278 5283 5289 5293